Location: Unspecified
(0.0000°N, 0.0000°E)
Time: 13:13:38
(UTC+00:00)

Vanguard 2 Rocket - Pass Details

Date: 14 October 2022
Orbit: 555 x 3321 km, 32.9° (Epoch: 07 December)

Event Time Altitude Azimuth Distance (km) Brightness Sun altitude
Exits shadow 04:33:34 31° 264° (W) 1,319 7.2 -17.9°
Maximum altitude 04:35:21 42° 219° (SW) 986 6.8 -17.5°
Drops below altitude 10° 04:39:19 10° 146° (SE) 1,904 9.1 -16.5°
Sets 04:41:25 0° 138° (SE) 2,736 10.2 -16.0°
